Corpus Christi, TX

4:58 AM CDT on September 21, 2017 (GMT -0500)
Corpus Christi International

Weather History for KCRP - July, 2014

Change the Weather History Date:

Saturday, July 26, 2014

  Actual Average Record
Temperature  
Mean Temperature 86 °F 84 °F  
Max Temperature 97 °F 94 °F 101 °F (1954)
Min Temperature 75 °F 75 °F 72 °F (1993)
Degree Days  
Heating Degree Days 0 0  
Month to date heating degree days 0 0  
Since 1 June heating degree days 0 0  
Since 1 July heating degree days 0 0  
Cooling Degree Days 21 19  
Month to date cooling degree days 512 490  
Year to date cooling degree days 1925 1853  
Since 1 June cooling degree days 1119 1012  
Growing Degree Days 36 (Base 50)    
Moisture  
Dew Point 74 °F    
Average Humidity 68    
Maximum Humidity 94    
Minimum Humidity 42    
Precipitation  
Precipitation 0.00 in 0.06 in 1.59 in (1979)
Month to date precipitation 0.74 2.49  
Year to date precipitation 9.25 16.12  
Snow  
Snow 0.00 in - - ()
Month to date snowfall 0.0  
Since 1 June snowfall 0.0  
Since 1 July snowfall 0.0  
Snow Depth 0.00 in    
Sea Level Pressure  
Sea Level Pressure 29.98 in    
Wind  
Wind Speed 14 mph (SSE)    
Max Wind Speed 28 mph    
Max Gust Speed 34 mph    
Visibility 10 miles    
Events      
T = Trace of Precipitation, MM = Missing Value Source: NWS Daily Summary

Daily Weather History Graph

Daily Weather History Graph

Search for Another Location

Airport or City:

Trip Planner

Search our weather history database for the weather conditions in past years. The results will help you decide how hot, cold, wet, or windy it might be!

Date:

Astronomy

Jul. 26, 2014 Rise Set
Actual Time 6:49 AM CDT 8:23 PM CDT
Civil Twilight 6:24 AM CDT 8:48 PM CDT
Nautical Twilight 5:53 AM CDT 9:19 PM CDT
Astronomical Twilight 5:21 AM CDT 9:51 PM CDT
Moon 6:37 AM CDT (7/26) 8:06 PM CDT (7/26)
Length of Visible Light 14h 24m
Length of Day
13h 33m
Waning Crescent, 0% of the Moon is Illuminated
Jul 26
Waning Crescent
Jul 26
New
Aug 3
First Quarter
Aug 10
Full
Aug 17
Last Quarter

Hourly Weather History & Observations

Time (CDT) Temp. Heat Index Dew Point Humidity Pressure Visibility Wind Dir Wind Speed Gust Speed Precip Events Conditions
12:51 AM 80.1 °F 85.4 °F 75.9 °F 87% 29.99 in 10.0 mi SSE 12.7 mph - N/A   Partly Cloudy
1:51 AM 80.1 °F 85.4 °F 75.9 °F 87% 29.98 in 10.0 mi South 12.7 mph - N/A   Partly Cloudy
2:51 AM 79.0 °F - 75.9 °F 90% 29.97 in 10.0 mi South 10.4 mph - N/A   Partly Cloudy
3:51 AM 79.0 °F - 75.9 °F 90% 29.96 in 10.0 mi South 10.4 mph - N/A   Partly Cloudy
4:51 AM 78.1 °F - 75.9 °F 93% 29.96 in 10.0 mi South 6.9 mph - N/A   Partly Cloudy
5:51 AM 75.9 °F - 73.9 °F 94% 29.97 in 10.0 mi Calm Calm - N/A   Partly Cloudy
6:51 AM 75.0 °F - 73.0 °F 94% 29.99 in 7.0 mi SSE 6.9 mph - N/A   Partly Cloudy
7:51 AM 78.1 °F - 75.9 °F 93% 30.00 in 9.0 mi South 8.1 mph - N/A   Partly Cloudy
8:51 AM 82.9 °F 91.8 °F 77.0 °F 82% 30.03 in 10.0 mi SSE 12.7 mph - N/A   Partly Cloudy
1:51 PM 96.1 °F 107.1 °F 73.9 °F 49% 30.00 in 10.0 mi SSE 19.6 mph 31.1 mph N/A   Partly Cloudy
2:51 PM 95.0 °F 105.2 °F 73.9 °F 50% 29.99 in 10.0 mi SSE 25.3 mph 31.1 mph N/A   Scattered Clouds
3:51 PM 96.1 °F 102.9 °F 70.0 °F 43% 29.97 in 10.0 mi SE 25.3 mph 33.4 mph N/A   Partly Cloudy
4:51 PM 93.9 °F 102.1 °F 72.0 °F 49% 29.94 in 10.0 mi SSE 26.5 mph 34.5 mph N/A   Partly Cloudy
5:51 PM 91.9 °F 98.4 °F 71.1 °F 50% 29.94 in 10.0 mi SSE 25.3 mph 34.5 mph N/A   Partly Cloudy
6:51 PM 90.0 °F 96.4 °F 71.1 °F 54% 29.94 in 10.0 mi SSE 25.3 mph - N/A   Partly Cloudy
7:51 PM 86.0 °F 92.2 °F 72.0 °F 63% 29.95 in 10.0 mi SSE 27.6 mph 33.4 mph N/A   Partly Cloudy
8:51 PM 84.0 °F 91.2 °F 73.9 °F 72% 29.98 in 10.0 mi SSE 19.6 mph - N/A   Partly Cloudy
9:51 PM 82.0 °F 88.6 °F 75.0 °F 79% 29.99 in 10.0 mi SSE 17.3 mph - N/A   Partly Cloudy
10:51 PM 80.6 °F 86.2 °F 75.2 °F 84% 30.00 in 10.0 mi SSE 13.8 mph - N/A   Partly Cloudy
11:51 PM 80.1 °F 85.1 °F 75.0 °F 85% 30.00 in 10.0 mi South 12.7 mph - N/A   Clear